Zeit;wasserstand;wasserstand_status;abfluss;abfluss_status
1995-06-01 00:00:00;76.0;0;0.8137;0
1995-06-02 00:00:00;82.0;1;1.0481;1
1995-06-03 00:00:00;75.0;1;0.7582;1
1995-06-04 00:00:00;72.0;1;0.6505;1
1995-06-05 00:00:00;74.0;1;0.7045;1
1995-06-06 00:00:00;72.0;1;0.6352;1
1995-06-07 00:00:00;74.0;1;0.6962;1
1995-06-08 00:00:00;89.0;1;1.285;1
1995-06-09 00:00:00;80.0;1;0.9259;1
1995-06-10 00:00:00;74.0;1;0.675;1
1995-06-11 00:00:00;71.0;1;0.5872;1
1995-06-12 00:00:00;69.0;1;0.5316;1
1995-06-13 00:00:00;67.0;1;0.5052;1
1995-06-14 00:00:00;77.0;1;0.7657;1
1995-06-15 00:00:00;87.0;1;1.1221;1
1995-06-16 00:00:00;79.0;1;0.8065;1
1995-06-17 00:00:00;81.0;1;0.8492;1
1995-06-18 00:00:00;93.0;1;1.3381;1
1995-06-19 00:00:00;80.0;1;0.8544;1
1995-06-20 00:00:00;74.0;1;0.6267;1
1995-06-21 00:00:00;71.0;1;0.5347;1
1995-06-22 00:00:00;71.0;1;0.5245;1
1995-06-23 00:00:00;70.0;1;0.509;1
1995-06-24 00:00:00;69.0;1;0.4805;1
1995-06-25 00:00:00;67.0;1;0.4433;1
1995-06-26 00:00:00;65.0;1;0.4162;1
1995-06-27 00:00:00;63.0;1;0.3814;1
1995-06-28 00:00:00;63.0;1;0.3804;1
1995-06-29 00:00:00;63.0;1;0.3929;1
1995-06-30 00:00:00;61.0;1;0.3494;1
1995-07-01 00:00:00;62.0;1;0.3716;1
1995-07-02 00:00:00;60.0;1;0.3408;1
1995-07-03 00:00:00;61.0;1;0.3535;1
1995-07-04 00:00:00;65.0;1;0.4062;1
1995-07-05 00:00:00;63.0;1;0.379;1
1995-07-06 00:00:00;61.0;1;0.3509;1
1995-07-07 00:00:00;60.0;1;0.3372;1
1995-07-08 00:00:00;60.0;1;0.333;1
1995-07-09 00:00:00;59.0;1;0.3188;1
1995-07-10 00:00:00;66.0;1;0.4375;1
1995-07-11 00:00:00;65.0;1;0.4043;1
1995-07-12 00:00:00;62.0;1;0.3429;1
1995-07-13 00:00:00;69.0;1;0.4847;1
1995-07-14 00:00:00;63.0;1;0.3708;1
1995-07-15 00:00:00;65.0;1;0.4254;1
1995-07-16 00:00:00;79.0;1;0.7383;1
1995-07-17 00:00:00;71.0;1;0.5027;1
1995-07-18 00:00:00;68.0;1;0.4371;1
1995-07-19 00:00:00;68.0;1;0.4321;1
1995-07-20 00:00:00;65.0;1;0.3879;1
1995-07-21 00:00:00;63.0;1;0.3504;1
1995-07-22 00:00:00;68.0;1;0.4301;1
1995-07-23 00:00:00;64.0;1;0.3746;1
1995-07-24 00:00:00;62.0;1;0.3345;1
1995-07-25 00:00:00;60.0;1;0.3123;1
1995-07-26 00:00:00;61.0;1;0.3172;1
1995-07-27 00:00:00;64.0;1;0.354;1
1995-07-28 00:00:00;64.0;1;0.3602;1
1995-07-29 00:00:00;65.0;1;0.3677;1
1995-07-30 00:00:00;64.0;1;0.3513;1
1995-07-31 00:00:00;64.0;1;0.3486;1
1995-08-01 00:00:00;63.0;1;0.3372;1
1995-08-02 00:00:00;63.0;1;0.3315;1
1995-08-03 00:00:00;63.0;1;0.3346;1
1995-08-04 00:00:00;64.0;1;0.3499;1
1995-08-05 00:00:00;63.0;1;0.3352;1
1995-08-06 00:00:00;62.0;1;0.3264;1
1995-08-07 00:00:00;60.0;1;0.2989;1
1995-08-08 00:00:00;62.0;1;0.3299;1
1995-08-09 00:00:00;60.0;1;0.3008;1
1995-08-10 00:00:00;62.0;1;0.3267;1
1995-08-11 00:00:00;61.0;1;0.313;1
1995-08-12 00:00:00;60.0;1;0.3008;1
1995-08-13 00:00:00;59.0;1;0.2858;1
1995-08-14 00:00:00;55.0;1;0.2484;1
1995-08-15 00:00:00;56.0;1;0.2555;1
1995-08-16 00:00:00;58.0;1;0.2848;1
1995-08-17 00:00:00;57.0;1;0.2651;1
1995-08-18 00:00:00;59.0;1;0.2863;1
1995-08-19 00:00:00;57.0;1;0.264;1
1995-08-20 00:00:00;57.0;1;0.2672;1
1995-08-21 00:00:00;58.0;1;0.276;1
1995-08-22 00:00:00;57.0;1;0.2682;1
1995-08-23 00:00:00;59.0;1;0.2886;1
1995-08-24 00:00:00;67.0;1;0.4138;1
1995-08-25 00:00:00;62.0;1;0.3327;1
1995-08-26 00:00:00;65.0;1;0.3791;1
1995-08-27 00:00:00;66.0;1;0.3804;1
1995-08-28 00:00:00;77.0;1;0.6379;1
1995-08-29 00:00:00;71.0;1;0.4877;1
1995-08-30 00:00:00;66.0;1;0.3962;1
1995-08-31 00:00:00;64.0;1;0.3786;1
1995-09-01 00:00:00;63.0;1;0.3595;1
1995-09-02 00:00:00;63.0;1;0.3659;1
1995-09-03 00:00:00;64.0;1;0.386;1
1995-09-04 00:00:00;65.0;1;0.4044;1
1995-09-05 00:00:00;66.0;1;0.4246;1
1995-09-06 00:00:00;67.0;1;0.4476;1
1995-09-07 00:00:00;68.0;1;0.4708;1
1995-09-08 00:00:00;68.0;1;0.4773;1
1995-09-09 00:00:00;78.0;1;0.755;1
1995-09-10 00:00:00;81.0;1;0.8693;1
1995-09-11 00:00:00;73.0;1;0.6277;1
1995-09-12 00:00:00;71.0;1;0.5817;1
1995-09-13 00:00:00;70.0;1;0.5309;1
1995-09-14 00:00:00;82.0;1;0.9008;1
1995-09-15 00:00:00;83.0;1;0.9232;1
1995-09-16 00:00:00;75.0;1;0.6204;1
1995-09-17 00:00:00;71.0;1;0.5067;1
1995-09-18 00:00:00;68.0;1;0.449;1
1995-09-19 00:00:00;66.0;1;0.405;1
1995-09-20 00:00:00;67.0;1;0.4114;1
1995-09-21 00:00:00;67.0;1;0.3967;1
1995-09-22 00:00:00;66.0;1;0.3821;1
1995-09-23 00:00:00;66.0;1;0.3704;1
1995-09-24 00:00:00;66.0;1;0.3647;1
1995-09-25 00:00:00;66.0;1;0.363;1
1995-09-26 00:00:00;68.0;1;0.3842;1
1995-09-27 00:00:00;81.0;1;0.6737;1
1995-09-28 00:00:00;94.0;1;1.0571;1
1995-09-29 00:00:00;107.0;1;1.5376;1
1995-09-30 00:00:00;120.0;1;2.075;1
1995-10-01 00:00:00;104.0;1;1.4717;1
1995-10-02 00:00:00;95.0;1;1.1606;1
1995-10-03 00:00:00;88.0;1;0.9204;1
1995-10-04 00:00:00;82.0;1;0.7376;1
1995-10-05 00:00:00;78.0;1;0.6202;1
1995-10-06 00:00:00;77.0;1;0.6195;1
1995-10-07 00:00:00;75.0;1;0.5818;1
1995-10-08 00:00:00;74.0;1;0.5568;1
1995-10-09 00:00:00;72.0;1;0.5261;1
1995-10-10 00:00:00;72.0;1;0.5214;1
1995-10-11 00:00:00;71.0;1;0.5094;1
1995-10-12 00:00:00;70.0;1;0.4914;1
1995-10-13 00:00:00;70.0;1;0.507;1
1995-10-14 00:00:00;68.0;1;0.473;1
1995-10-15 00:00:00;68.0;1;0.469;1
1995-10-16 00:00:00;69.0;1;0.4791;1
1995-10-17 00:00:00;67.0;1;0.4647;1
1995-10-18 00:00:00;69.0;1;0.5038;1
1995-10-19 00:00:00;67.0;1;0.4573;1
1995-10-20 00:00:00;96.0;1;1.4066;1
1995-10-21 00:00:00;93.0;1;1.3563;1
1995-10-22 00:00:00;80.0;1;0.7996;1
1995-10-23 00:00:00;75.0;1;0.6345;1
1995-10-24 00:00:00;73.0;1;0.5696;1
1995-10-25 00:00:00;71.0;1;0.5258;1
1995-10-26 00:00:00;70.0;1;0.5116;1
1995-10-27 00:00:00;71.0;1;0.5151;1
1995-10-28 00:00:00;72.0;1;0.5357;1
1995-10-29 00:00:00;70.0;1;0.4952;1
1995-10-30 00:00:00;69.0;1;0.4702;1
1995-10-31 00:00:00;69.0;1;0.4765;1
1995-11-01 00:00:00;80.0;1;0.7536;1
1995-11-02 00:00:00;82.0;1;0.8164;1
1995-11-03 00:00:00;87.0;1;1.0164;1
1995-11-04 00:00:00;77.0;1;0.6519;1
1995-11-05 00:00:00;74.0;1;0.5715;1
1995-11-06 00:00:00;75.0;1;0.5981;1
1995-11-07 00:00:00;74.0;1;0.5825;1
1995-11-08 00:00:00;75.0;1;0.5835;1
1995-11-09 00:00:00;82.0;1;0.8035;1
1995-11-10 00:00:00;80.0;1;0.7361;1
1995-11-11 00:00:00;76.0;1;0.6306;1
1995-11-12 00:00:00;73.0;1;0.5483;1
1995-11-13 00:00:00;71.0;1;0.5086;1
1995-11-14 00:00:00;73.0;1;0.5442;1
1995-11-15 00:00:00;73.0;1;0.5573;1
1995-11-16 00:00:00;73.0;1;0.5548;1
1995-11-17 00:00:00;73.0;1;0.5582;1
1995-11-18 00:00:00;71.0;1;0.5143;1
1995-11-19 00:00:00;78.0;1;0.6873;1
1995-11-20 00:00:00;84.0;1;0.8888;1
1995-11-21 00:00:00;77.0;1;0.6619;1
1995-11-22 00:00:00;74.0;1;0.5851;1
1995-11-23 00:00:00;75.0;1;0.6054;1
1995-11-24 00:00:00;76.0;1;0.6193;1
1995-11-25 00:00:00;75.0;1;0.5986;1
1995-11-26 00:00:00;73.0;1;0.5485;1
1995-11-27 00:00:00;72.0;1;0.5172;1
1995-11-28 00:00:00;71.0;1;0.506;1
1995-11-29 00:00:00;71.0;1;0.4996;1
1995-11-30 00:00:00;71.0;1;0.5049;1
1995-12-01 00:00:00;70.0;1;0.4938;1
1995-12-02 00:00:00;70.0;1;0.4826;1
1995-12-03 00:00:00;69.0;1;0.467;1
1995-12-04 00:00:00;69.0;1;0.4609;1
1995-12-05 00:00:00;69.0;1;0.4651;1
1995-12-06 00:00:00;69.0;1;0.4582;1
1995-12-07 00:00:00;69.0;1;0.45;1
1995-12-08 00:00:00;68.0;1;0.4374;1
1995-12-09 00:00:00;68.0;1;0.4385;1
1995-12-10 00:00:00;69.0;1;0.4448;1
1995-12-11 00:00:00;69.0;1;0.4567;1
1995-12-12 00:00:00;71.0;1;0.4979;1
1995-12-13 00:00:00;70.0;1;0.465;1
1995-12-14 00:00:00;69.0;1;0.4598;1
1995-12-15 00:00:00;69.0;1;0.4588;1
1995-12-16 00:00:00;68.0;1;0.4354;1
1995-12-17 00:00:00;66.0;1;0.4069;1
1995-12-18 00:00:00;68.0;1;0.422;1
1995-12-19 00:00:00;68.0;1;0.427;1
1995-12-20 00:00:00;68.0;1;0.4339;1
1995-12-21 00:00:00;67.0;1;0.4239;1
1995-12-22 00:00:00;69.0;1;0.4521;1
1995-12-23 00:00:00;112.0;1;1.9374;1
1995-12-24 00:00:00;100.0;1;1.5403;1
1995-12-25 00:00:00;83.0;1;0.8456;1
1995-12-26 00:00:00;80.0;1;0.7274;1
1995-12-27 00:00:00;73.0;1;0.5403;1
1995-12-28 00:00:00;73.0;1;0.5356;1
1995-12-29 00:00:00;71.0;1;0.5071;1
1995-12-30 00:00:00;72.0;1;0.5211;1
1995-12-31 00:00:00;84.0;1;0.8632;1
1996-01-01 00:00:00;74.0;1;0.5712;1
1996-01-02 00:00:00;68.0;1;0.4487;1
1996-01-03 00:00:00;67.0;1;0.4237;1
1996-01-04 00:00:00;68.0;1;0.4334;1
1996-01-05 00:00:00;67.0;1;0.4293;1
1996-01-06 00:00:00;67.0;1;0.4173;1
1996-01-07 00:00:00;68.0;1;0.4289;1
1996-01-08 00:00:00;68.0;1;0.4414;1
1996-01-09 00:00:00;69.0;1;0.4579;1
1996-01-10 00:00:00;72.0;1;0.503;1
1996-01-11 00:00:00;75.0;1;0.5922;1
1996-01-12 00:00:00;77.0;1;0.6139;1
1996-01-13 00:00:00;78.0;1;0.6547;1
1996-01-14 00:00:00;74.0;1;0.5559;1
1996-01-15 00:00:00;73.0;1;0.5228;1
1996-01-16 00:00:00;73.0;1;0.51;1
1996-01-17 00:00:00;72.0;1;0.4896;1
1996-01-18 00:00:00;72.0;1;0.4861;1
1996-01-19 00:00:00;72.0;1;0.4801;1
1996-01-20 00:00:00;71.0;1;0.4671;1
1996-01-21 00:00:00;68.0;1;0.4131;1
1996-01-22 00:00:00;69.0;1;0.413;1
1996-01-23 00:00:00;68.0;1;0.3891;1
1996-01-24 00:00:00;87.0;1;0.8475;1
1996-01-25 00:00:00;84.0;1;0.8352;1
1996-01-26 00:00:00;72.0;1;0.4698;1
1996-01-27 00:00:00;71.0;1;0.4349;1
1996-01-28 00:00:00;70.0;1;0.4241;1
1996-01-29 00:00:00;65.0;1;0.3586;1
1996-01-30 00:00:00;59.0;1;0.2742;1
1996-01-31 00:00:00;62.0;1;0.2967;1
1996-02-01 00:00:00;64.0;1;0.3253;1
1996-02-02 00:00:00;64.0;1;0.3291;1
1996-02-03 00:00:00;65.0;1;0.3375;1
1996-02-04 00:00:00;65.0;1;0.3352;1
1996-02-05 00:00:00;65.0;1;0.339;1
1996-02-06 00:00:00;71.0;1;0.4369;1
1996-02-07 00:00:00;74.0;1;0.5217;1
1996-02-08 00:00:00;65.0;1;0.3491;1
1996-02-09 00:00:00;65.0;1;0.3458;1
1996-02-10 00:00:00;65.0;1;0.3454;1
1996-02-11 00:00:00;68.0;1;0.3872;1
1996-02-12 00:00:00;64.0;1;0.3447;1
1996-02-13 00:00:00;66.0;1;0.3666;1
1996-02-14 00:00:00;64.0;1;0.3521;1
1996-02-15 00:00:00;64.0;1;0.3552;1
1996-02-16 00:00:00;106.0;1;1.7363;1
1996-02-17 00:00:00;153.0;1;4.0317;1
1996-02-18 00:00:00;107.0;1;1.7326;1
1996-02-19 00:00:00;129.0;1;2.7577;1
1996-02-20 00:00:00;95.0;1;1.3092;1
1996-02-21 00:00:00;83.0;1;0.849;1
1996-02-22 00:00:00;79.0;1;0.7024;1
1996-02-23 00:00:00;76.0;1;0.6198;1
1996-02-24 00:00:00;74.0;1;0.5859;1
1996-02-25 00:00:00;86.0;1;0.9626;1
1996-02-26 00:00:00;151.0;1;4.1418;1
1996-02-27 00:00:00;152.0;1;4.4283;1
1996-02-28 00:00:00;104.0;1;1.8108;1
1996-02-29 00:00:00;92.0;1;1.2539;1
1996-03-01 00:00:00;84.0;1;0.9532;1
1996-03-02 00:00:00;81.0;1;0.8478;1
1996-03-03 00:00:00;79.0;1;0.7813;1
1996-03-04 00:00:00;77.0;1;0.7195;1
1996-03-05 00:00:00;75.0;1;0.6488;1
1996-03-06 00:00:00;74.0;1;0.6337;1
1996-03-07 00:00:00;74.0;1;0.6326;1
1996-03-08 00:00:00;73.0;1;0.6057;1
1996-03-09 00:00:00;72.0;1;0.5791;1
1996-03-10 00:00:00;71.0;1;0.5634;1
1996-03-11 00:00:00;71.0;1;0.5573;1
1996-03-12 00:00:00;70.0;1;0.5365;1
1996-03-13 00:00:00;70.0;1;0.5268;1
1996-03-14 00:00:00;69.0;1;0.5136;1
1996-03-15 00:00:00;69.0;1;0.5163;1
1996-03-16 00:00:00;69.0;1;0.5098;1
1996-03-17 00:00:00;69.0;1;0.506;1
1996-03-18 00:00:00;69.0;1;0.507;1
1996-03-19 00:00:00;69.0;1;0.5053;1
1996-03-20 00:00:00;70.0;1;0.52;1
1996-03-21 00:00:00;70.0;1;0.5127;1
1996-03-22 00:00:00;69.0;1;0.4991;1
1996-03-23 00:00:00;70.0;1;0.5203;1
1996-03-24 00:00:00;74.0;1;0.6049;1
1996-03-25 00:00:00;74.0;1;0.6059;1
1996-03-26 00:00:00;74.0;1;0.6109;1
1996-03-27 00:00:00;72.0;1;0.5447;1
1996-03-28 00:00:00;71.0;1;0.5242;1
1996-03-29 00:00:00;72.0;1;0.5395;1
1996-03-30 00:00:00;72.0;1;0.5338;1
1996-03-31 00:00:00;71.0;1;0.5092;1
1996-04-01 00:00:00;70.0;1;0.4835;1
1996-04-02 00:00:00;69.0;1;0.4684;1
1996-04-03 00:00:00;68.0;1;0.4461;1
1996-04-04 00:00:00;69.0;1;0.4527;1
1996-04-05 00:00:00;68.0;1;0.4352;1
1996-04-06 00:00:00;68.0;1;0.4307;1
1996-04-07 00:00:00;69.0;1;0.4416;1
1996-04-08 00:00:00;68.0;1;0.4177;1
1996-04-09 00:00:00;69.0;1;0.4302;1
1996-04-10 00:00:00;68.0;1;0.4068;1
1996-04-11 00:00:00;71.0;1;0.4706;1
1996-04-12 00:00:00;70.0;1;0.4399;1
1996-04-13 00:00:00;69.0;1;0.4171;1
1996-04-14 00:00:00;68.0;1;0.3993;1
1996-04-15 00:00:00;67.0;1;0.3765;1
1996-04-16 00:00:00;67.0;1;0.371;1
1996-04-17 00:00:00;66.0;1;0.3522;1
1996-04-18 00:00:00;65.0;1;0.3368;1
1996-04-19 00:00:00;65.0;1;0.3398;1
1996-04-20 00:00:00;65.0;1;0.3327;1
1996-04-21 00:00:00;65.0;1;0.326;1
1996-04-22 00:00:00;64.0;1;0.3156;1
1996-04-23 00:00:00;64.0;1;0.3122;1
1996-04-24 00:00:00;69.0;1;0.3749;1
1996-04-25 00:00:00;69.0;1;0.3731;1
1996-04-26 00:00:00;67.0;1;0.3476;1
1996-04-27 00:00:00;66.0;1;0.3394;1
1996-04-28 00:00:00;67.0;1;0.3395;1
1996-04-29 00:00:00;65.0;1;0.3178;1
1996-04-30 00:00:00;64.0;1;0.3083;1
1996-05-01 00:00:00;63.0;1;0.3031;1
1996-05-02 00:00:00;63.0;1;0.2997;1
1996-05-03 00:00:00;64.0;1;0.309;1
1996-05-04 00:00:00;64.0;1;0.3122;1
1996-05-05 00:00:00;64.0;1;0.3141;1
1996-05-06 00:00:00;63.0;1;0.3033;1
1996-05-07 00:00:00;62.0;1;0.2949;1
1996-05-08 00:00:00;61.0;1;0.2907;1
1996-05-09 00:00:00;61.0;1;0.2883;1
1996-05-10 00:00:00;62.0;1;0.2968;1
1996-05-11 00:00:00;62.0;1;0.3037;1
1996-05-12 00:00:00;62.0;1;0.3061;1
1996-05-13 00:00:00;62.0;1;0.3138;1
1996-05-14 00:00:00;62.0;1;0.3148;1
1996-05-15 00:00:00;62.0;1;0.3131;1
1996-05-16 00:00:00;61.0;1;0.3092;1
1996-05-17 00:00:00;61.0;1;0.3061;1
1996-05-18 00:00:00;62.0;1;0.3134;1
1996-05-19 00:00:00;63.0;1;0.3361;1
1996-05-20 00:00:00;73.0;1;0.4983;1
1996-05-21 00:00:00;66.0;1;0.3864;1
1996-05-22 00:00:00;63.0;1;0.3427;1
1996-05-23 00:00:00;65.0;1;0.3728;1
1996-05-24 00:00:00;68.0;1;0.4085;1
1996-05-25 00:00:00;83.0;1;0.792;1
1996-05-26 00:00:00;77.0;1;0.6262;1
1996-05-27 00:00:00;82.0;1;0.7453;1
1996-05-28 00:00:00;86.0;1;0.9055;1
1996-05-29 00:00:00;75.0;1;0.5692;1
1996-05-30 00:00:00;73.0;1;0.5196;1
1996-05-31 00:00:00;71.0;1;0.4703;1
1996-06-01 00:00:00;69.0;1;0.4257;1
1996-06-02 00:00:00;68.0;1;0.4021;1
1996-06-03 00:00:00;67.0;1;0.3917;1
1996-06-04 00:00:00;67.0;1;0.3823;1
1996-06-05 00:00:00;65.0;1;0.3532;1
1996-06-06 00:00:00;64.0;1;0.3355;1
1996-06-07 00:00:00;64.0;1;0.3312;1
1996-06-08 00:00:00;63.0;1;0.311;1
1996-06-09 00:00:00;71.0;1;0.4202;1
1996-06-10 00:00:00;67.0;1;0.3546;1
1996-06-11 00:00:00;64.0;1;0.3107;1
1996-06-12 00:00:00;63.0;1;0.2995;1
1996-06-13 00:00:00;62.0;1;0.2853;1
1996-06-14 00:00:00;61.0;1;0.2657;1
1996-06-15 00:00:00;61.0;1;0.2613;1
1996-06-16 00:00:00;61.0;1;0.2569;1
1996-06-17 00:00:00;62.0;1;0.2608;1
1996-06-18 00:00:00;63.0;1;0.2625;1
1996-06-19 00:00:00;63.0;1;0.2638;1
1996-06-20 00:00:00;62.0;1;0.2528;1
1996-06-21 00:00:00;63.0;1;0.2552;1
1996-06-22 00:00:00;62.0;1;0.2418;1
1996-06-23 00:00:00;62.0;1;0.234;1
1996-06-24 00:00:00;61.0;1;0.2235;1
1996-06-25 00:00:00;62.0;1;0.2244;1
1996-06-26 00:00:00;62.0;1;0.222;1
1996-06-27 00:00:00;61.0;1;0.2135;1
1996-06-28 00:00:00;61.0;1;0.2081;1
1996-06-29 00:00:00;62.0;1;0.2125;1
1996-06-30 00:00:00;63.0;1;0.2225;1
1996-07-01 00:00:00;64.0;1;0.2284;1
1996-07-02 00:00:00;65.0;1;0.2352;1
1996-07-03 00:00:00;64.0;1;0.2218;1
1996-07-04 00:00:00;65.0;1;0.232;1
1996-07-05 00:00:00;68.0;1;0.2577;1
1996-07-06 00:00:00;68.0;1;0.2545;1
1996-07-07 00:00:00;67.0;1;0.2428;1
1996-07-08 00:00:00;63.0;1;0.2099;1
1996-07-09 00:00:00;62.0;1;0.2008;1
1996-07-10 00:00:00;62.0;1;0.1974;1
1996-07-11 00:00:00;61.0;1;0.1913;1
1996-07-12 00:00:00;61.0;1;0.1894;1
1996-07-13 00:00:00;58.0;1;0.1722;1
1996-07-14 00:00:00;58.0;1;0.1702;1
1996-07-15 00:00:00;58.0;1;0.17;1
1996-07-16 00:00:00;60.0;1;0.1849;1
1996-07-17 00:00:00;56.0;1;0.1577;1
1996-07-18 00:00:00;59.0;1;0.1758;1
1996-07-19 00:00:00;56.0;1;0.1605;1
1996-07-20 00:00:00;56.0;1;0.156;1
1996-07-21 00:00:00;57.0;1;0.1606;1
1996-07-22 00:00:00;57.0;1;0.1623;1
1996-07-23 00:00:00;57.0;1;0.1633;1
1996-07-24 00:00:00;70.0;1;0.2603;1
1996-07-25 00:00:00;69.0;1;0.2578;1
1996-07-26 00:00:00;63.0;1;0.2035;1
1996-07-27 00:00:00;63.0;1;0.2002;1
1996-07-28 00:00:00;61.0;1;0.1886;1
1996-07-29 00:00:00;59.0;1;0.17;1
1996-07-30 00:00:00;61.0;1;0.1875;1
1996-07-31 00:00:00;59.0;1;0.1696;1
1996-08-01 00:00:00;62.0;1;0.1963;1
1996-08-02 00:00:00;59.0;1;0.1712;1
1996-08-03 00:00:00;59.0;1;0.1708;1
1996-08-04 00:00:00;59.0;1;0.1681;1
1996-08-05 00:00:00;58.0;1;0.1659;1
1996-08-06 00:00:00;58.0;1;0.1611;1
1996-08-07 00:00:00;58.0;1;0.1635;1
1996-08-08 00:00:00;63.0;1;0.1989;1
1996-08-09 00:00:00;59.0;1;0.1697;1
1996-08-10 00:00:00;59.0;1;0.1677;1
1996-08-11 00:00:00;58.0;1;0.1615;1
1996-08-12 00:00:00;58.0;1;0.1622;1
1996-08-13 00:00:00;58.0;1;0.1621;1
1996-08-14 00:00:00;58.0;1;0.1609;1
1996-08-15 00:00:00;58.0;1;0.1613;1
1996-08-16 00:00:00;58.0;1;0.162;1
1996-08-17 00:00:00;57.0;1;0.1561;1
1996-08-18 00:00:00;57.0;1;0.1516;1
1996-08-19 00:00:00;56.0;1;0.1489;1
1996-08-20 00:00:00;55.0;1;0.1444;1
1996-08-21 00:00:00;55.0;1;0.1393;1
1996-08-22 00:00:00;55.0;1;0.1391;1
1996-08-23 00:00:00;54.0;1;0.137;1
1996-08-24 00:00:00;57.0;1;0.1521;1
1996-08-25 00:00:00;57.0;1;0.1523;1
1996-08-26 00:00:00;57.0;1;0.1539;1
1996-08-27 00:00:00;58.0;1;0.1575;1
1996-08-28 00:00:00;59.0;1;0.1626;1
1996-08-29 00:00:00;71.0;1;0.283;1
1996-08-30 00:00:00;66.0;1;0.2091;1
1996-08-31 00:00:00;67.0;1;0.2269;1
1996-09-01 00:00:00;65.0;1;0.2063;1
1996-09-02 00:00:00;61.0;1;0.1764;1
1996-09-03 00:00:00;63.0;1;0.1919;1
1996-09-04 00:00:00;61.0;1;0.1779;1
1996-09-05 00:00:00;60.0;1;0.1727;1
1996-09-06 00:00:00;59.0;1;0.1668;1
1996-09-07 00:00:00;58.0;1;0.1626;1
1996-09-08 00:00:00;58.0;1;0.1622;1
1996-09-09 00:00:00;59.0;1;0.1681;1
1996-09-10 00:00:00;60.0;1;0.173;1
1996-09-11 00:00:00;59.0;1;0.1688;1
1996-09-12 00:00:00;64.0;1;0.2082;1
1996-09-13 00:00:00;67.0;1;0.2368;1
1996-09-14 00:00:00;64.0;1;0.2068;1
1996-09-15 00:00:00;63.0;1;0.2016;1
1996-09-16 00:00:00;62.0;1;0.1968;1
1996-09-17 00:00:00;60.0;1;0.1858;1
1996-09-18 00:00:00;60.0;1;0.1866;1
1996-09-19 00:00:00;59.0;1;0.182;1
1996-09-20 00:00:00;60.0;1;0.1862;1
1996-09-21 00:00:00;60.0;1;0.1878;1
1996-09-22 00:00:00;59.0;1;0.187;1
1996-09-23 00:00:00;60.0;1;0.1909;1
1996-09-24 00:00:00;60.0;1;0.1953;1
1996-09-25 00:00:00;59.0;1;0.1926;1
1996-09-26 00:00:00;59.0;1;0.1928;1
1996-09-27 00:00:00;60.0;1;0.2029;1
1996-09-28 00:00:00;68.0;1;0.2806;1
1996-09-29 00:00:00;65.0;1;0.2556;1
1996-09-30 00:00:00;73.0;1;0.3645;1
1996-10-01 00:00:00;73.0;1;0.3656;1
1996-10-02 00:00:00;71.0;1;0.3472;1
1996-10-03 00:00:00;67.0;1;0.2938;1
1996-10-04 00:00:00;66.0;1;0.2891;1
1996-10-05 00:00:00;65.0;1;0.2872;1
1996-10-06 00:00:00;65.0;1;0.2872;1
1996-10-07 00:00:00;64.0;1;0.2864;1
1996-10-08 00:00:00;64.0;1;0.285;1
1996-10-09 00:00:00;64.0;1;0.289;1
1996-10-10 00:00:00;64.0;1;0.2938;1
1996-10-11 00:00:00;63.0;1;0.2939;1
1996-10-12 00:00:00;63.0;1;0.2961;1
1996-10-13 00:00:00;63.0;1;0.3035;1
1996-10-14 00:00:00;62.0;1;0.2937;1
1996-10-15 00:00:00;64.0;1;0.32;1
1996-10-16 00:00:00;73.0;1;0.5026;1
1996-10-17 00:00:00;79.0;1;0.6355;1
1996-10-18 00:00:00;72.0;1;0.4719;1
1996-10-19 00:00:00;69.0;1;0.4137;1
1996-10-20 00:00:00;69.0;1;0.4116;1
1996-10-21 00:00:00;73.0;1;0.4914;1
1996-10-22 00:00:00;74.0;1;0.532;1
1996-10-23 00:00:00;82.0;1;0.7424;1
1996-10-24 00:00:00;84.0;1;0.8198;1
1996-10-25 00:00:00;83.0;1;0.8027;1
1996-10-26 00:00:00;67.0;1;0.4079;1
1996-10-27 00:00:00;68.0;1;0.4189;1
1996-10-28 00:00:00;72.0;1;0.5065;1
1996-10-29 00:00:00;72.0;1;0.4893;1
1996-10-30 00:00:00;74.0;1;0.5574;1
1996-10-31 00:00:00;72.0;1;0.4944;1
1996-11-01 00:00:00;76.0;1;0.581;1
1996-11-02 00:00:00;82.0;1;0.7473;1
1996-11-03 00:00:00;96.0;1;1.2237;1
1996-11-04 00:00:00;101.0;1;1.4894;1
1996-11-05 00:00:00;93.0;1;1.1066;1
1996-11-06 00:00:00;108.0;1;1.7028;1
1996-11-07 00:00:00;102.0;1;1.4988;1
1996-11-08 00:00:00;92.0;1;1.112;1
1996-11-09 00:00:00;91.0;1;1.0661;1
1996-11-10 00:00:00;91.0;1;1.0512;1
1996-11-11 00:00:00;94.0;1;1.157;1
1996-11-12 00:00:00;95.0;1;1.1992;1
1996-11-13 00:00:00;88.0;1;0.9524;1
1996-11-14 00:00:00;83.0;1;0.7849;1
1996-11-15 00:00:00;79.0;1;0.6554;1
1996-11-16 00:00:00;77.0;1;0.5978;1
1996-11-17 00:00:00;77.0;1;0.5985;1
1996-11-18 00:00:00;76.0;1;0.5771;1
1996-11-19 00:00:00;88.0;1;0.9317;1
1996-11-20 00:00:00;90.0;1;1.0218;1
1996-11-21 00:00:00;88.0;1;0.9286;1
1996-11-22 00:00:00;103.0;1;1.4607;1
1996-11-23 00:00:00;105.0;1;1.5786;1
1996-11-24 00:00:00;94.0;1;1.1746;1
1996-11-25 00:00:00;88.0;1;0.9597;1
1996-11-26 00:00:00;89.0;1;0.9995;1
1996-11-27 00:00:00;88.0;1;0.9745;1
1996-11-28 00:00:00;98.0;1;1.339;1
1996-11-29 00:00:00;98.0;1;1.3606;1
1996-11-30 00:00:00;119.0;1;2.2056;1
1996-12-01 00:00:00;128.0;1;2.7557;1
1996-12-02 00:00:00;148.0;1;3.7163;1
1996-12-03 00:00:00;152.0;1;4.073;1
1996-12-04 00:00:00;171.0;1;5.1897;1
1996-12-05 00:00:00;154.0;1;4.2669;1
1996-12-06 00:00:00;128.0;1;2.8127;1
1996-12-07 00:00:00;112.0;1;2.0149;1
1996-12-08 00:00:00;102.0;1;1.5834;1
1996-12-09 00:00:00;94.0;1;1.2816;1
1996-12-10 00:00:00;90.0;1;1.1366;1
1996-12-11 00:00:00;87.0;1;0.9985;1
1996-12-12 00:00:00;85.0;1;0.9298;1
1996-12-13 00:00:00;85.0;1;0.9265;1
1996-12-14 00:00:00;83.0;1;0.8564;1
1996-12-15 00:00:00;85.0;1;0.9403;1
1996-12-16 00:00:00;84.0;1;0.9166;1
1996-12-17 00:00:00;83.0;1;0.866;1
1996-12-18 00:00:00;81.0;1;0.8042;1
1996-12-19 00:00:00;86.0;1;0.9824;1
1996-12-20 00:00:00;82.0;1;0.8431;1
1996-12-21 00:00:00;77.0;1;0.6825;1
1996-12-22 00:00:00;75.0;1;0.6058;1
1996-12-23 00:00:00;75.0;1;0.6032;1
1996-12-24 00:00:00;74.0;1;0.5761;1
1996-12-25 00:00:00;73.0;1;0.5489;1
1996-12-26 00:00:00;72.0;1;0.5122;1
1996-12-27 00:00:00;71.0;1;0.4965;1
1996-12-28 00:00:00;70.0;1;0.4676;1
1996-12-29 00:00:00;69.0;1;0.4517;1
1996-12-30 00:00:00;69.0;1;0.4483;1
1996-12-31 00:00:00;76.0;1;0.6212;1
1997-01-01 00:00:00;74.0;1;0.5332;1
1997-01-02 00:00:00;73.0;1;0.5105;1
1997-01-03 00:00:00;72.0;1;0.4917;1
1997-01-04 00:00:00;72.0;1;0.4878;1
1997-01-05 00:00:00;71.0;1;0.4721;1
1997-01-06 00:00:00;69.0;1;0.4174;1
1997-01-07 00:00:00;69.0;1;0.4136;1
1997-01-08 00:00:00;68.0;1;0.4018;1
1997-01-09 00:00:00;68.0;1;0.406;1
1997-01-10 00:00:00;69.0;1;0.4084;1
1997-01-11 00:00:00;68.0;1;0.3947;1
1997-01-12 00:00:00;68.0;1;0.3929;1
1997-01-13 00:00:00;68.0;1;0.3974;1
1997-01-14 00:00:00;69.0;1;0.4036;1
1997-01-15 00:00:00;69.0;1;0.4055;1
1997-01-16 00:00:00;69.0;1;0.4044;1
1997-01-17 00:00:00;68.0;1;0.3891;1
1997-01-18 00:00:00;68.0;1;0.3896;1
1997-01-19 00:00:00;68.0;1;0.3904;1
1997-01-20 00:00:00;68.0;1;0.3963;1
1997-01-21 00:00:00;69.0;1;0.4129;1
1997-01-22 00:00:00;70.0;1;0.4284;1
1997-01-23 00:00:00;71.0;1;0.4506;1
1997-01-24 00:00:00;73.0;1;0.4836;1
1997-01-25 00:00:00;73.0;1;0.4944;1
1997-01-26 00:00:00;73.0;1;0.4969;1
1997-01-27 00:00:00;72.0;1;0.485;1
1997-01-28 00:00:00;72.0;1;0.481;1
1997-01-29 00:00:00;72.0;1;0.4881;1
1997-01-30 00:00:00;72.0;1;0.492;1
1997-01-31 00:00:00;73.0;1;0.5093;1
1997-02-01 00:00:00;72.0;1;0.5098;1
1997-02-02 00:00:00;72.0;1;0.5066;1
1997-02-03 00:00:00;72.0;1;0.5078;1
1997-02-04 00:00:00;73.0;1;0.5243;1
1997-02-05 00:00:00;75.0;1;0.5986;1
1997-02-06 00:00:00;73.0;1;0.5525;1
1997-02-07 00:00:00;75.0;1;0.585;1
1997-02-08 00:00:00;78.0;1;0.6851;1
1997-02-09 00:00:00;77.0;1;0.6627;1
1997-02-10 00:00:00;84.0;1;0.8801;1
1997-02-11 00:00:00;88.0;1;1.039;1
1997-02-12 00:00:00;96.0;1;1.3027;1
1997-02-13 00:00:00;143.0;1;3.688;1
1997-02-14 00:00:00;126.0;1;2.8458;1
1997-02-15 00:00:00;108.0;1;1.9156;1
1997-02-16 00:00:00;97.0;1;1.4302;1
1997-02-17 00:00:00;90.0;1;1.1589;1
1997-02-18 00:00:00;121.0;1;2.51;1
1997-02-19 00:00:00;129.0;1;3.0263;1
1997-02-20 00:00:00;121.0;1;2.5301;1
1997-02-21 00:00:00;110.0;1;1.9832;1
1997-02-22 00:00:00;100.0;1;1.5536;1
1997-02-23 00:00:00;94.0;1;1.2792;1
1997-02-24 00:00:00;97.0;1;1.3261;1
1997-02-25 00:00:00;163.0;1;4.7866;1
1997-02-26 00:00:00;166.0;1;4.9774;1
1997-02-27 00:00:00;147.0;1;3.9057;1
1997-02-28 00:00:00;120.0;1;2.3469;1
1997-03-01 00:00:00;115.0;1;2.0621;1
1997-03-02 00:00:00;107.0;1;1.7111;1
1997-03-03 00:00:00;101.0;1;1.4966;1
1997-03-04 00:00:00;91.0;1;1.0823;1
1997-03-05 00:00:00;88.0;1;0.9584;1
1997-03-06 00:00:00;86.0;1;0.8654;1
1997-03-07 00:00:00;81.0;1;0.7053;1
1997-03-08 00:00:00;81.0;1;0.7026;1